Regional Weather Roundup
Issued by NWS

Home | Current Version | Previous Version | Text Only | Print | Product List | Glossary Off
Versions: 1 2 3 4 5 6 7 8 9 10 11 12 13 14 15 16 17 18 19 20 21 22 23 24 25 26 27 28 29 30 31 32 33 34 35 36 37 38 39 40 41 42 43 44 45 46 47 48 49 50

000
ASUS45 KBOU 222210
RWRCO

WEATHER ROUNDUP FOR COLORADO
NATIONAL WEATHER SERVICE PUEBLO CO
400 PM MDT SUN APR 22 2018

NOTE: "FAIR" INDICATES FEW OR NO CLOUDS BELOW 12000 FEET WITH NO
SIGNIFICANT WEATHER AND/OR OBSTRUCTIONS TO VISIBILITY.

COZ001>005-013-030-031-222300-
...NORTHWEST COLORADO...

CITY           SKY/WX    TMP DP  RH WIND       PRES   REMARKS
CRAIG          SUNNY     65  27  23 SW6       30.11F
HAYDEN         SUNNY     62  26  25 NW5       30.13F
MEEKER         SUNNY     66  26  22 CALM      30.11F
RABBIT EARS PA NOT AVBL
STEAMBOAT SPGS FAIR      62  29  29 SE7       30.13F
WALDEN         FAIR      59  21  23 W8        30.19F
$$

COZ006>008-011-222300-
...WEST CENTRAL VALLEYS...

CITY           SKY/WX    TMP DP  RH WIND       PRES   REMARKS
GRAND JUNCTION SUNNY     73  28  18 S5        30.02F
MONTROSE       MOSUNNY   68  22  17 MISG      30.08F
EAGLE          SUNNY     63  29  27 CALM      30.14F
RIFLE          SUNNY     70  29  21 NE3       30.07F
DELTA          NOT AVBL
NUCLA          FAIR      72  18  13 NW6       30.09F
$$

COZ017>023-064>068-222300-
...SOUTHWEST COLORADO...

CITY           SKY/WX    TMP DP  RH WIND       PRES   REMARKS
DURANGO        MOSUNNY   68  16  13 CALM      30.09F
CORTEZ         PTSUNNY   70  21  15 W8        30.07F
PAGOSA SPRINGS FAIR      66   8  10 S10G16    30.13F
TELLURIDE      PTSUNNY   57  26  30 NW5       30.22F
WOLF CREEK PAS PTSUNNY   39  19  45 SW10G22   30.39F
$$

COZ009-010-012-014-032>034-037-058>063-222300-
...CENTRAL COLORADO...

CITY           SKY/WX    TMP DP  RH WIND       PRES   REMARKS
ASPEN          SUNNY     58  26  29 VRB3      30.16F
BUENA VISTA    FAIR      62  18  18 CALM      30.14F
COPPER MTN     NOT AVBL
BERTHOUD PASS  FAIR      28  18  64 MISG      30.38S
COTTONWOOD PAS CLOUDY    55  23  28 NW6       30.25F
GUNNISON       MOSUNNY   61  23  23 W7        30.15F
KREMMLING      SUNNY     64  28  25 E3        30.17F
LEADVILLE      PTSUNNY   52  21  29 MISG      30.24F
MONARCH PASS   MOSUNNY   43  14  31 W8G20     30.45F
SALIDA         FAIR      66  18  15 N7        30.19F
SUNLIGHT       CLOUDY    41  30  65 CALM      30.35F
WILKERSON PASS PTSUNNY   43  27  52 E5        30.35F
$$

COZ069>075-222300-
...SAN LUIS VALLEY/SANGRE DE CRISTO MOUNTAINS...

CITY           SKY/WX    TMP DP  RH WIND       PRES   REMARKS
ALAMOSA        MOSUNNY   63  17  17 VRB6      30.13F
DEL NORTE      FAIR      62  20  20 SE10      30.15F
LA VETA PASS   PTSUNNY   48  27  43 NE15G26   30.38F
SAGUACHE       NOT AVBL
$$

COZ035-036-038>040-222300-
...NORTHERN COLORADO FRONT RANGE...

CITY           SKY/WX    TMP DP  RH WIND       PRES   REMARKS
DENVER INTL AP MOSUNNY   64  31  28 NE7       30.12F
DMNS CITY PARK NOT AVBL
AURORA         NOT AVBL
FRONT RANGE AP MOSUNNY   64  30  27 N7        30.13F
ERIE MUNI ARPT FAIR      64  29  27 CALM      30.16F
BOULDER MUN AP FAIR      63  34  34 CALM      30.12F
CENTENNIAL     MOSUNNY   62  32  32 NE9       30.13F
BROOMFIELD     MOSUNNY   63  34  34 VRB6      30.13F
LOVELAND       SUNNY     65  39  38 SE5       30.11F
LONGMONT       FAIR      68  36  30 E3        30.12F
$$

COZ041-046-047-076>085-087-088-222300-
...PIKES PEAK/PALMER DIVIDE AND SOUTHERN FOOTHILLS...

CITY           SKY/WX    TMP DP  RH WIND       PRES   REMARKS
COLO. SPRINGS  MOSUNNY   65  28  24 N15G23    30.13F
A. F. ACADEMY  SUNNY     62  26  26 N13G20    30.13F
SCHRIEVER AFB  NOT AVBL
CHEYENNE MTN   NOT AVBL
ELLICOTT         N/A    N/A N/A N/A VRB6      30.12F
FALCON         FAIR      63  20  19 N12G17    30.17F
FORT CARSON    SUNNY     64  38  38 E10G23    30.10S
LIMON          SUNNY     61  30  31 N8G18     30.12F
MONUMENT HILL  SUNNY     55  27  33 NW8G16    30.19S
CANON CITY     FAIR      70  36  28 SE10G21   30.07F
WALSENBURG     FAIR      68  28  22 NE9G20    30.11S
TRINIDAD       SUNNY     67  25  20 NE12G23   30.11F
$$

COZ042>045-048>051-090-091-222300-
...NORTHEAST COLORADO...

CITY           SKY/WX    TMP DP  RH WIND       PRES   REMARKS
GREELEY ARPT   SUNNY     65  35  33 NE7       30.10F
AKRON          MOSUNNY   57  39  51 E8        30.13F
BURLINGTON     MOSUNNY   56  38  50 E8        30.15F
WRAY           FAIR      55  36  47 E5        30.16F
YUMA           NOT AVBL
STERLING       NOT AVBL
HOLYOKE        PTSUNNY   59  39  47 E13       30.16F
FORT MORGAN    FAIR      63  33  32 E8        30.12F
$$

COZ086-089-092>099-222300-
...SOUTHEAST COLORADO...

CITY           SKY/WX    TMP DP  RH WIND       PRES   REMARKS
PUEBLO         SUNNY     65  39  38 E16G24    30.08F
LA JUNTA       SUNNY     60  39  45 E13G23    30.12F
LAMAR          SUNNY     57  36  45 MISG      30.13F
SPRINGFIELD      N/A     56  36  47 E9        30.13F
$$





USA.gov is the U.S. government's official web portal to all federal, state and local government web resources and services.